Location: Foots Cray
(51.4000°N, 0.1167°E)
Time: 00:45:37
(UTC+00:00)

COSMOS 2428 - Pass Details

Date: 15 May 2026
Orbit: 844 x 855 km, 70.9° (Epoch: 9 June)

Event Time Altitude Azimuth Distance (km) Brightness Sun altitude
Rises 21:04:16 0° 330° (NNW) 3,428 7.8 -10.2°
Reaches altitude 10° 21:07:10 10° 343° (NNW) 2,487 6.3 -10.5°
Maximum altitude 21:11:53 26° 39° (NE) 1,624 4.3 -11.0°
Drops below altitude 10° 21:16:35 10° 95° (E) 2,472 4.7 -11.4°
Enters shadow 21:17:35 - 101° (E) 2,783 5.0 -11.5°
